owner,sensor,date,latitude,longitude,vertical_datum,sea_water_temperature,qcFlag 
ENP,ioos.station.NOAA.NDBC:WWEF1:1,2016-01-01T00:00:00Z,25.2320,-80.9380,1.0,27.15,2 
ENP,ioos.station.NOAA.NDBC:WWEF1:1,2016-01-01T01:00:00Z,25.2320,-80.9380,1.0,27.08,2 
ENP,ioos.station.NOAA.NDBC:WWEF1:1,2016-01-01T02:00:00Z,25.2320,-80.9380,1.0,27.03,2 
ENP,ioos.station.NOAA.NDBC:WWEF1:1,2016-01-01T04:00:00Z,25.2320,-80.9380,1.0,26.86,2 
ENP,ioos.station.NOAA.NDBC:WWEF1:1,2016-01-01T05:00:00Z,25.2320,-80.9380,1.0,26.78,2 
ENP,ioos.station.NOAA.NDBC:WWEF1:1,2016-01-01T06:00:00Z,25.2320,-80.9380,1.0,26.69,2 
ENP,ioos.station.NOAA.NDBC:WWEF1:1,2016-01-01T07:00:00Z,25.2320,-80.9380,1.0,26.59,2 
ENP,ioos.station.NOAA.NDBC:WWEF1:1,2016-01-01T08:00:00Z,25.2320,-80.9380,1.0,26.52,2 
ENP,ioos.station.NOAA.NDBC:WWEF1:1,2016-01-01T09:00:00Z,25.2320,-80.9380,1.0,26.47,2 
ENP,ioos.station.NOAA.NDBC:WWEF1:1,2016-01-01T10:00:00Z,25.2320,-80.9380,1.0,26.4,2 
ENP,ioos.station.NOAA.NDBC:WWEF1:1,2016-01-01T11:00:00Z,25.2320,-80.9380,1.0,26.33,2 
ENP,ioos.station.NOAA.NDBC:WWEF1:1,2016-01-01T12:00:00Z,25.2320,-80.9380,1.0,26.24,2 
ENP,ioos.station.NOAA.NDBC:WWEF1:1,2016-01-01T13:00:00Z,25.2320,-80.9380,1.0,26.12,2 
ENP,ioos.station.NOAA.NDBC:WWEF1:1,2016-01-01T14:00:00Z,25.2320,-80.9380,1.0,26.07,2 
ENP,ioos.station.NOAA.NDBC:WWEF1:1,2016-01-01T15:00:00Z,25.2320,-80.9380,1.0,26.12,2 
ENP,ioos.station.NOAA.NDBC:WWEF1:1,2016-01-02T18:00:00Z,25.2320,-80.9380,1.0,26.76,2 
ENP,ioos.station.NOAA.NDBC:WWEF1:1,2016-01-02T19:00:00Z,25.2320,-80.9380,1.0,26.85,2 
ENP,ioos.station.NOAA.NDBC:WWEF1:1,2016-01-02T20:00:00Z,25.2320,-80.9380,1.0,26.92,2 
ENP,ioos.station.NOAA.NDBC:WWEF1:1,2016-01-02T21:00:00Z,25.2320,-80.9380,1.0,26.98,2 
ENP,ioos.station.NOAA.NDBC:WWEF1:1,2016-01-02T22:00:00Z,25.2320,-80.9380,1.0,27.59,2 
ENP,ioos.station.NOAA.NDBC:WWEF1:1,2016-01-02T23:00:00Z,25.2320,-80.9380,1.0,27.62,2 
ENP,ioos.station.NOAA.NDBC:WWEF1:1,2016-01-03T00:00:00Z,25.2320,-80.9380,1.0,27.56,2 
ENP,ioos.station.NOAA.NDBC:WWEF1:1,2016-01-03T01:00:00Z,25.2320,-80.9380,1.0,27.48,2 
ENP,ioos.station.NOAA.NDBC:WWEF1:1,2016-01-03T02:00:00Z,25.2320,-80.9380,1.0,27.51,2 
ENP,ioos.station.NOAA.NDBC:WWEF1:1,2016-01-03T04:00:00Z,25.2320,-80.9380,1.0,27.45,2 
ENP,ioos.station.NOAA.NDBC:WWEF1:1,2016-01-03T05:00:00Z,25.2320,-80.9380,1.0,27.2,2 
ENP,ioos.station.NOAA.NDBC:WWEF1:1,2016-01-03T06:00:00Z,25.2320,-80.9380,1.0,27.05,2 
ENP,ioos.station.NOAA.NDBC:WWEF1:1,2016-01-03T07:00:00Z,25.2320,-80.9380,1.0,27.02,2 
ENP,ioos.station.NOAA.NDBC:WWEF1:1,2016-01-03T09:00:00Z,25.2320,-80.9380,1.0,27.01,2 
ENP,ioos.station.NOAA.NDBC:WWEF1:1,2016-01-03T10:00:00Z,25.2320,-80.9380,1.0,26.95,2 
ENP,ioos.station.NOAA.NDBC:WWEF1:1,2016-01-03T11:00:00Z,25.2320,-80.9380,1.0,26.75,2 
ENP,ioos.station.NOAA.NDBC:WWEF1:1,2016-01-03T12:00:00Z,25.2320,-80.9380,1.0,26.87,2 
ENP,ioos.station.NOAA.NDBC:WWEF1:1,2016-01-03T13:00:00Z,25.2320,-80.9380,1.0,26.61,2 
ENP,ioos.station.NOAA.NDBC:WWEF1:1,2016-01-03T14:00:00Z,25.2320,-80.9380,1.0,26.58,2 
ENP,ioos.station.NOAA.NDBC:WWEF1:1,2016-01-03T15:00:00Z,25.2320,-80.9380,1.0,26.42,2 
ENP,ioos.station.NOAA.NDBC:WWEF1:1,2016-01-03T16:00:00Z,25.2320,-80.9380,1.0,26.08,2 
ENP,ioos.station.NOAA.NDBC:WWEF1:1,2016-01-03T17:00:00Z,25.2320,-80.9380,1.0,26.07,2 
ENP,ioos.station.NOAA.NDBC:WWEF1:1,2016-01-03T18:00:00Z,25.2320,-80.9380,1.0,26.15,2 
ENP,ioos.station.NOAA.NDBC:WWEF1:1,2016-01-03T19:00:00Z,25.2320,-80.9380,1.0,26.21,2 
ENP,ioos.station.NOAA.NDBC:WWEF1:1,2016-01-03T20:00:00Z,25.2320,-80.9380,1.0,26.27,2 
ENP,ioos.station.NOAA.NDBC:WWEF1:1,2016-01-03T21:00:00Z,25.2320,-80.9380,1.0,26.23,2 
ENP,ioos.station.NOAA.NDBC:WWEF1:1,2016-01-03T22:00:00Z,25.2320,-80.9380,1.0,26.21,2 
ENP,ioos.station.NOAA.NDBC:WWEF1:1,2016-01-03T23:00:00Z,25.2320,-80.9380,1.0,26.18,2 
ENP,ioos.station.NOAA.NDBC:WWEF1:1,2016-01-04T00:00:00Z,25.2320,-80.9380,1.0,26.1,2 
ENP,ioos.station.NOAA.NDBC:WWEF1:1,2016-01-04T01:00:00Z,25.2320,-80.9380,1.0,25.95,2 
ENP,ioos.station.NOAA.NDBC:WWEF1:1,2016-01-04T02:00:00Z,25.2320,-80.9380,1.0,25.83,2 
ENP,ioos.station.NOAA.NDBC:WWEF1:1,2016-01-04T04:00:00Z,25.2320,-80.9380,1.0,26.01,2 
ENP,ioos.station.NOAA.NDBC:WWEF1:1,2016-01-04T05:00:00Z,25.2320,-80.9380,1.0,26.02,2 
ENP,ioos.station.NOAA.NDBC:WWEF1:1,2016-01-04T06:00:00Z,25.2320,-80.9380,1.0,26.01,2 
ENP,ioos.station.NOAA.NDBC:WWEF1:1,2016-01-04T07:00:00Z,25.2320,-80.9380,1.0,25.62,2 
ENP,ioos.station.NOAA.NDBC:WWEF1:1,2016-01-04T08:00:00Z,25.2320,-80.9380,1.0,25.33,2 
ENP,ioos.station.NOAA.NDBC:WWEF1:1,2016-01-04T09:00:00Z,25.2320,-80.9380,1.0,25.2,2 
ENP,ioos.station.NOAA.NDBC:WWEF1:1,2016-01-04T10:00:00Z,25.2320,-80.9380,1.0,25.1,2 
ENP,ioos.station.NOAA.NDBC:WWEF1:1,2016-01-04T11:00:00Z,25.2320,-80.9380,1.0,25.08,2 
ENP,ioos.station.NOAA.NDBC:WWEF1:1,2016-01-04T12:00:00Z,25.2320,-80.9380,1.0,25.37,2 
ENP,ioos.station.NOAA.NDBC:WWEF1:1,2016-01-04T13:00:00Z,25.2320,-80.9380,1.0,25.3,2 
ENP,ioos.station.NOAA.NDBC:WWEF1:1,2016-01-04T14:00:00Z,25.2320,-80.9380,1.0,25.22,2 
ENP,ioos.station.NOAA.NDBC:WWEF1:1,2016-01-04T15:00:00Z,25.2320,-80.9380,1.0,25.18,2 
ENP,ioos.station.NOAA.NDBC:WWEF1:1,2016-01-04T16:00:00Z,25.2320,-80.9380,1.0,25.19,2 
ENP,ioos.station.NOAA.NDBC:WWEF1:1,2016-01-04T17:00:00Z,25.2320,-80.9380,1.0,25.01,2 
ENP,ioos.station.NOAA.NDBC:WWEF1:1,2016-01-04T18:00:00Z,25.2320,-80.9380,1.0,24.78,2 
ENP,ioos.station.NOAA.NDBC:WWEF1:1,2016-01-04T19:00:00Z,25.2320,-80.9380,1.0,24.66,2 
ENP,ioos.station.NOAA.NDBC:WWEF1:1,2016-01-04T20:00:00Z,25.2320,-80.9380,1.0,24.68,2 
ENP,ioos.station.NOAA.NDBC:WWEF1:1,2016-01-04T21:00:00Z,25.2320,-80.9380,1.0,24.61,2 
ENP,ioos.station.NOAA.NDBC:WWEF1:1,2016-01-04T22:00:00Z,25.2320,-80.9380,1.0,24.6,2 
ENP,ioos.station.NOAA.NDBC:WWEF1:1,2016-01-04T23:00:00Z,25.2320,-80.9380,1.0,24.46,2 
ENP,ioos.station.NOAA.NDBC:WWEF1:1,2016-01-05T00:00:00Z,25.2320,-80.9380,1.0,24.22,2 
ENP,ioos.station.NOAA.NDBC:WWEF1:1,2016-01-05T01:00:00Z,25.2320,-80.9380,1.0,23.98,2 
ENP,ioos.station.NOAA.NDBC:WWEF1:1,2016-01-05T02:00:00Z,25.2320,-80.9380,1.0,23.7,2 
ENP,ioos.station.NOAA.NDBC:WWEF1:1,2016-01-05T04:00:00Z,25.2320,-80.9380,1.0,23.15,2 
ENP,ioos.station.NOAA.NDBC:WWEF1:1,2016-01-05T05:00:00Z,25.2320,-80.9380,1.0,22.92,2 
ENP,ioos.station.NOAA.NDBC:WWEF1:1,2016-01-05T07:00:00Z,25.2320,-80.9380,1.0,22.47,2 
ENP,ioos.station.NOAA.NDBC:WWEF1:1,2016-01-05T08:00:00Z,25.2320,-80.9380,1.0,22.31,2 
ENP,ioos.station.NOAA.NDBC:WWEF1:1,2016-01-05T09:00:00Z,25.2320,-80.9380,1.0,22.14,2 
ENP,ioos.station.NOAA.NDBC:WWEF1:1,2016-01-05T10:00:00Z,25.2320,-80.9380,1.0,21.93,2 
ENP,ioos.station.NOAA.NDBC:WWEF1:1,2016-01-05T11:00:00Z,25.2320,-80.9380,1.0,21.76,2 
ENP,ioos.station.NOAA.NDBC:WWEF1:1,2016-01-05T14:00:00Z,25.2320,-80.9380,1.0,21.27,2 
ENP,ioos.station.NOAA.NDBC:WWEF1:1,2016-01-06T05:00:00Z,25.2320,-80.9380,1.0,20.54,2 
ENP,ioos.station.NOAA.NDBC:WWEF1:1,2016-01-06T16:00:00Z,25.2320,-80.9380,1.0,20.0,2 
ENP,ioos.station.NOAA.NDBC:WWEF1:1,2016-01-07T05:00:00Z,25.2320,-80.9380,1.0,20.57,2 
ENP,ioos.station.NOAA.NDBC:WWEF1:1,2016-01-07T13:00:00Z,25.2320,-80.9380,1.0,20.06,2 
ENP,ioos.station.NOAA.NDBC:WWEF1:1,2016-01-07T14:00:00Z,25.2320,-80.9380,1.0,20.05,2 
ENP,ioos.station.NOAA.NDBC:WWEF1:1,2016-01-07T15:00:00Z,25.2320,-80.9380,1.0,20.23,2 
ENP,ioos.station.NOAA.NDBC:WWEF1:1,2016-01-07T16:00:00Z,25.2320,-80.9380,1.0,20.38,2 
ENP,ioos.station.NOAA.NDBC:WWEF1:1,2016-01-07T17:00:00Z,25.2320,-80.9380,1.0,20.49,2 
ENP,ioos.station.NOAA.NDBC:WWEF1:1,2016-01-07T18:00:00Z,25.2320,-80.9380,1.0,20.65,2 
ENP,ioos.station.NOAA.NDBC:WWEF1:1,2016-01-07T19:00:00Z,25.2320,-80.9380,1.0,20.82,2 
ENP,ioos.station.NOAA.NDBC:WWEF1:1,2016-01-07T20:00:00Z,25.2320,-80.9380,1.0,21.06,2 
ENP,ioos.station.NOAA.NDBC:WWEF1:1,2016-01-07T21:00:00Z,25.2320,-80.9380,1.0,21.27,2 
ENP,ioos.station.NOAA.NDBC:WWEF1:1,2016-01-07T22:00:00Z,25.2320,-80.9380,1.0,21.72,2 
ENP,ioos.station.NOAA.NDBC:WWEF1:1,2016-01-07T23:00:00Z,25.2320,-80.9380,1.0,22.6,2 
ENP,ioos.station.NOAA.NDBC:WWEF1:1,2016-01-08T00:00:00Z,25.2320,-80.9380,1.0,22.74,2 
ENP,ioos.station.NOAA.NDBC:WWEF1:1,2016-01-08T01:00:00Z,25.2320,-80.9380,1.0,22.61,2 
ENP,ioos.station.NOAA.NDBC:WWEF1:1,2016-01-08T02:00:00Z,25.2320,-80.9380,1.0,22.45,2 
ENP,ioos.station.NOAA.NDBC:WWEF1:1,2016-01-08T03:00:00Z,25.2320,-80.9380,1.0,21.91,2 
ENP,ioos.station.NOAA.NDBC:WWEF1:1,2016-01-08T04:00:00Z,25.2320,-80.9380,1.0,21.39,2 
ENP,ioos.station.NOAA.NDBC:WWEF1:1,2016-01-08T06:00:00Z,25.2320,-80.9380,1.0,21.95,2 
ENP,ioos.station.NOAA.NDBC:WWEF1:1,2016-01-08T07:00:00Z,25.2320,-80.9380,1.0,21.98,2 
ENP,ioos.station.NOAA.NDBC:WWEF1:1,2016-01-08T08:00:00Z,25.2320,-80.9380,1.0,21.94,2 
ENP,ioos.station.NOAA.NDBC:WWEF1:1,2016-01-08T09:00:00Z,25.2320,-80.9380,1.0,21.88,2 
ENP,ioos.station.NOAA.NDBC:WWEF1:1,2016-01-08T10:00:00Z,25.2320,-80.9380,1.0,21.97,2 
ENP,ioos.station.NOAA.NDBC:WWEF1:1,2016-01-08T11:00:00Z,25.2320,-80.9380,1.0,21.3,2 
ENP,ioos.station.NOAA.NDBC:WWEF1:1,2016-01-08T12:00:00Z,25.2320,-80.9380,1.0,21.23,2 
ENP,ioos.station.NOAA.NDBC:WWEF1:1,2016-01-08T13:00:00Z,25.2320,-80.9380,1.0,21.28,2 
ENP,ioos.station.NOAA.NDBC:WWEF1:1,2016-01-08T14:00:00Z,25.2320,-80.9380,1.0,21.39,2 
ENP,ioos.station.NOAA.NDBC:WWEF1:1,2016-01-08T15:00:00Z,25.2320,-80.9380,1.0,21.48,2 
ENP,ioos.station.NOAA.NDBC:WWEF1:1,2016-01-08T16:00:00Z,25.2320,-80.9380,1.0,21.72,2 
ENP,ioos.station.NOAA.NDBC:WWEF1:1,2016-01-08T17:00:00Z,25.2320,-80.9380,1.0,21.78,2 
ENP,ioos.station.NOAA.NDBC:WWEF1:1,2016-01-08T18:00:00Z,25.2320,-80.9380,1.0,21.87,2 
ENP,ioos.station.NOAA.NDBC:WWEF1:1,2016-01-08T19:00:00Z,25.2320,-80.9380,1.0,21.97,2 
ENP,ioos.station.NOAA.NDBC:WWEF1:1,2016-01-08T20:00:00Z,25.2320,-80.9380,1.0,22.07,2 
ENP,ioos.station.NOAA.NDBC:WWEF1:1,2016-01-08T21:00:00Z,25.2320,-80.9380,1.0,22.3,2 
ENP,ioos.station.NOAA.NDBC:WWEF1:1,2016-01-08T22:00:00Z,25.2320,-80.9380,1.0,22.44,2 
ENP,ioos.station.NOAA.NDBC:WWEF1:1,2016-01-08T23:00:00Z,25.2320,-80.9380,1.0,22.41,2 
ENP,ioos.station.NOAA.NDBC:WWEF1:1,2016-01-09T00:00:00Z,25.2320,-80.9380,1.0,22.37,2 
ENP,ioos.station.NOAA.NDBC:WWEF1:1,2016-01-09T01:00:00Z,25.2320,-80.9380,1.0,22.33,2 
ENP,ioos.station.NOAA.NDBC:WWEF1:1,2016-01-09T02:00:00Z,25.2320,-80.9380,1.0,22.27,2 
ENP,ioos.station.NOAA.NDBC:WWEF1:1,2016-01-09T03:00:00Z,25.2320,-80.9380,1.0,22.07,2 
ENP,ioos.station.NOAA.NDBC:WWEF1:1,2016-01-09T04:00:00Z,25.2320,-80.9380,1.0,22.0,2 
ENP,ioos.station.NOAA.NDBC:WWEF1:1,2016-01-09T06:00:00Z,25.2320,-80.9380,1.0,21.89,2 
ENP,ioos.station.NOAA.NDBC:WWEF1:1,2016-01-09T07:00:00Z,25.2320,-80.9380,1.0,21.89,2 
ENP,ioos.station.NOAA.NDBC:WWEF1:1,2016-01-09T08:00:00Z,25.2320,-80.9380,1.0,21.89,2 
ENP,ioos.station.NOAA.NDBC:WWEF1:1,2016-01-09T09:00:00Z,25.2320,-80.9380,1.0,21.72,2 
ENP,ioos.station.NOAA.NDBC:WWEF1:1,2016-01-09T10:00:00Z,25.2320,-80.9380,1.0,21.81,2 
ENP,ioos.station.NOAA.NDBC:WWEF1:1,2016-01-09T11:00:00Z,25.2320,-80.9380,1.0,21.65,2 
ENP,ioos.station.NOAA.NDBC:WWEF1:1,2016-01-09T12:00:00Z,25.2320,-80.9380,1.0,21.4,2 
ENP,ioos.station.NOAA.NDBC:WWEF1:1,2016-01-09T13:00:00Z,25.2320,-80.9380,1.0,21.37,2 
ENP,ioos.station.NOAA.NDBC:WWEF1:1,2016-01-09T14:00:00Z,25.2320,-80.9380,1.0,21.35,2 
ENP,ioos.station.NOAA.NDBC:WWEF1:1,2016-01-09T15:00:00Z,25.2320,-80.9380,1.0,21.37,2 
ENP,ioos.station.NOAA.NDBC:WWEF1:1,2016-01-09T16:00:00Z,25.2320,-80.9380,1.0,21.46,2 
ENP,ioos.station.NOAA.NDBC:WWEF1:1,2016-01-09T17:00:00Z,25.2320,-80.9380,1.0,21.61,2 
ENP,ioos.station.NOAA.NDBC:WWEF1:1,2016-01-09T18:00:00Z,25.2320,-80.9380,1.0,22.2,2 
ENP,ioos.station.NOAA.NDBC:WWEF1:1,2016-01-09T19:00:00Z,25.2320,-80.9380,1.0,22.64,2 
ENP,ioos.station.NOAA.NDBC:WWEF1:1,2016-01-09T20:00:00Z,25.2320,-80.9380,1.0,23.22,2 
ENP,ioos.station.NOAA.NDBC:WWEF1:1,2016-01-09T21:00:00Z,25.2320,-80.9380,1.0,23.55,2 
ENP,ioos.station.NOAA.NDBC:WWEF1:1,2016-01-09T22:00:00Z,25.2320,-80.9380,1.0,23.77,2 
ENP,ioos.station.NOAA.NDBC:WWEF1:1,2016-01-09T23:00:00Z,25.2320,-80.9380,1.0,23.83,2 
ENP,ioos.station.NOAA.NDBC:WWEF1:1,2016-01-10T00:00:00Z,25.2320,-80.9380,1.0,23.76,2 
ENP,ioos.station.NOAA.NDBC:WWEF1:1,2016-01-10T01:00:00Z,25.2320,-80.9380,1.0,23.55,2 
ENP,ioos.station.NOAA.NDBC:WWEF1:1,2016-01-10T02:00:00Z,25.2320,-80.9380,1.0,23.31,2 
ENP,ioos.station.NOAA.NDBC:WWEF1:1,2016-01-10T03:00:00Z,25.2320,-80.9380,1.0,23.22,2 
ENP,ioos.station.NOAA.NDBC:WWEF1:1,2016-01-10T04:00:00Z,25.2320,-80.9380,1.0,23.22,2 
ENP,ioos.station.NOAA.NDBC:WWEF1:1,2016-01-10T05:00:00Z,25.2320,-80.9380,1.0,23.22,2 
ENP,ioos.station.NOAA.NDBC:WWEF1:1,2016-01-10T06:00:00Z,25.2320,-80.9380,1.0,23.18,2 
ENP,ioos.station.NOAA.NDBC:WWEF1:1,2016-01-10T07:00:00Z,25.2320,-80.9380,1.0,23.16,2 
ENP,ioos.station.NOAA.NDBC:WWEF1:1,2016-01-10T08:00:00Z,25.2320,-80.9380,1.0,23.14,2 
ENP,ioos.station.NOAA.NDBC:WWEF1:1,2016-01-10T09:00:00Z,25.2320,-80.9380,1.0,23.08,2 
ENP,ioos.station.NOAA.NDBC:WWEF1:1,2016-01-10T11:00:00Z,25.2320,-80.9380,1.0,23.04,2 
ENP,ioos.station.NOAA.NDBC:WWEF1:1,2016-01-10T12:00:00Z,25.2320,-80.9380,1.0,22.99,2 
ENP,ioos.station.NOAA.NDBC:WWEF1:1,2016-01-10T13:00:00Z,25.2320,-80.9380,1.0,22.93,2 
ENP,ioos.station.NOAA.NDBC:WWEF1:1,2016-01-10T14:00:00Z,25.2320,-80.9380,1.0,22.9,2 
ENP,ioos.station.NOAA.NDBC:WWEF1:1,2016-01-10T15:00:00Z,25.2320,-80.9380,1.0,22.95,2 
ENP,ioos.station.NOAA.NDBC:WWEF1:1,2016-01-10T17:00:00Z,25.2320,-80.9380,1.0,23.41,2 
ENP,ioos.station.NOAA.NDBC:WWEF1:1,2016-01-10T18:00:00Z,25.2320,-80.9380,1.0,23.49,2 
ENP,ioos.station.NOAA.NDBC:WWEF1:1,2016-01-10T19:00:00Z,25.2320,-80.9380,1.0,23.59,2 
ENP,ioos.station.NOAA.NDBC:WWEF1:1,2016-01-10T20:00:00Z,25.2320,-80.9380,1.0,23.69,2 
ENP,ioos.station.NOAA.NDBC:WWEF1:1,2016-01-10T21:00:00Z,25.2320,-80.9380,1.0,23.83,2 
ENP,ioos.station.NOAA.NDBC:WWEF1:1,2016-01-10T22:00:00Z,25.2320,-80.9380,1.0,23.88,2 
ENP,ioos.station.NOAA.NDBC:WWEF1:1,2016-01-10T23:00:00Z,25.2320,-80.9380,1.0,23.84,2 
ENP,ioos.station.NOAA.NDBC:WWEF1:1,2016-01-11T00:00:00Z,25.2320,-80.9380,1.0,23.77,2 
ENP,ioos.station.NOAA.NDBC:WWEF1:1,2016-01-11T01:00:00Z,25.2320,-80.9380,1.0,23.71,2 
ENP,ioos.station.NOAA.NDBC:WWEF1:1,2016-01-11T02:00:00Z,25.2320,-80.9380,1.0,23.66,2 
ENP,ioos.station.NOAA.NDBC:WWEF1:1,2016-01-11T03:00:00Z,25.2320,-80.9380,1.0,23.61,2 
ENP,ioos.station.NOAA.NDBC:WWEF1:1,2016-01-11T04:00:00Z,25.2320,-80.9380,1.0,23.54,2 
ENP,ioos.station.NOAA.NDBC:WWEF1:1,2016-01-11T05:00:00Z,25.2320,-80.9380,1.0,23.46,2 
ENP,ioos.station.NOAA.NDBC:WWEF1:1,2016-01-11T06:00:00Z,25.2320,-80.9380,1.0,23.37,2 
ENP,ioos.station.NOAA.NDBC:WWEF1:1,2016-01-11T07:00:00Z,25.2320,-80.9380,1.0,23.26,2 
ENP,ioos.station.NOAA.NDBC:WWEF1:1,2016-01-11T08:00:00Z,25.2320,-80.9380,1.0,23.13,2 
ENP,ioos.station.NOAA.NDBC:WWEF1:1,2016-01-11T09:00:00Z,25.2320,-80.9380,1.0,22.97,2 
ENP,ioos.station.NOAA.NDBC:WWEF1:1,2016-01-11T10:00:00Z,25.2320,-80.9380,1.0,22.84,2 
ENP,ioos.station.NOAA.NDBC:WWEF1:1,2016-01-11T11:00:00Z,25.2320,-80.9380,1.0,22.68,2 
ENP,ioos.station.NOAA.NDBC:WWEF1:1,2016-01-11T12:00:00Z,25.2320,-80.9380,1.0,22.55,2 
ENP,ioos.station.NOAA.NDBC:WWEF1:1,2016-01-11T13:00:00Z,25.2320,-80.9380,1.0,22.42,2 
ENP,ioos.station.NOAA.NDBC:WWEF1:1,2016-01-11T14:00:00Z,25.2320,-80.9380,1.0,22.31,2 
ENP,ioos.station.NOAA.NDBC:WWEF1:1,2016-01-11T15:00:00Z,25.2320,-80.9380,1.0,22.19,2 
ENP,ioos.station.NOAA.NDBC:WWEF1:1,2016-01-11T16:00:00Z,25.2320,-80.9380,1.0,22.11,2 
ENP,ioos.station.NOAA.NDBC:WWEF1:1,2016-01-11T17:00:00Z,25.2320,-80.9380,1.0,22.12,2 
ENP,ioos.station.NOAA.NDBC:WWEF1:1,2016-01-11T18:00:00Z,25.2320,-80.9380,1.0,22.17,2 
ENP,ioos.station.NOAA.NDBC:WWEF1:1,2016-01-11T19:00:00Z,25.2320,-80.9380,1.0,22.2,2 
ENP,ioos.station.NOAA.NDBC:WWEF1:1,2016-01-11T20:00:00Z,25.2320,-80.9380,1.0,22.27,2 
ENP,ioos.station.NOAA.NDBC:WWEF1:1,2016-01-11T21:00:00Z,25.2320,-80.9380,1.0,22.33,2 
ENP,ioos.station.NOAA.NDBC:WWEF1:1,2016-01-11T22:00:00Z,25.2320,-80.9380,1.0,22.35,2 
ENP,ioos.station.NOAA.NDBC:WWEF1:1,2016-01-11T23:00:00Z,25.2320,-80.9380,1.0,22.32,2 
ENP,ioos.station.NOAA.NDBC:WWEF1:1,2016-01-12T00:00:00Z,25.2320,-80.9380,1.0,22.26,2 
ENP,ioos.station.NOAA.NDBC:WWEF1:1,2016-01-12T01:00:00Z,25.2320,-80.9380,1.0,22.15,2 
ENP,ioos.station.NOAA.NDBC:WWEF1:1,2016-01-12T02:00:00Z,25.2320,-80.9380,1.0,22.02,2 
ENP,ioos.station.NOAA.NDBC:WWEF1:1,2016-01-12T03:00:00Z,25.2320,-80.9380,1.0,21.9,2 
ENP,ioos.station.NOAA.NDBC:WWEF1:1,2016-01-12T04:00:00Z,25.2320,-80.9380,1.0,21.8,2 
ENP,ioos.station.NOAA.NDBC:WWEF1:1,2016-01-12T06:00:00Z,25.2320,-80.9380,1.0,21.48,2 
ENP,ioos.station.NOAA.NDBC:WWEF1:1,2016-01-12T07:00:00Z,25.2320,-80.9380,1.0,21.32,2 
ENP,ioos.station.NOAA.NDBC:WWEF1:1,2016-01-12T08:00:00Z,25.2320,-80.9380,1.0,21.22,2 
ENP,ioos.station.NOAA.NDBC:WWEF1:1,2016-01-12T09:00:00Z,25.2320,-80.9380,1.0,21.11,2 
ENP,ioos.station.NOAA.NDBC:WWEF1:1,2016-01-12T10:00:00Z,25.2320,-80.9380,1.0,21.01,2 
ENP,ioos.station.NOAA.NDBC:WWEF1:1,2016-01-12T11:00:00Z,25.2320,-80.9380,1.0,20.87,2 
ENP,ioos.station.NOAA.NDBC:WWEF1:1,2016-01-12T12:00:00Z,25.2320,-80.9380,1.0,20.79,2 
ENP,ioos.station.NOAA.NDBC:WWEF1:1,2016-01-12T13:00:00Z,25.2320,-80.9380,1.0,20.72,2 
ENP,ioos.station.NOAA.NDBC:WWEF1:1,2016-01-12T15:00:00Z,25.2320,-80.9380,1.0,20.62,2 
ENP,ioos.station.NOAA.NDBC:WWEF1:1,2016-01-12T17:00:00Z,25.2320,-80.9380,1.0,20.56,2 
ENP,ioos.station.NOAA.NDBC:WWEF1:1,2016-01-12T18:00:00Z,25.2320,-80.9380,1.0,20.53,2 
ENP,ioos.station.NOAA.NDBC:WWEF1:1,2016-01-12T22:00:00Z,25.2320,-80.9380,1.0,20.5,2 
ENP,ioos.station.NOAA.NDBC:WWEF1:1,2016-01-12T23:00:00Z,25.2320,-80.9380,1.0,20.49,2 
ENP,ioos.station.NOAA.NDBC:WWEF1:1,2016-01-13T00:00:00Z,25.2320,-80.9380,1.0,20.47,2 
ENP,ioos.station.NOAA.NDBC:WWEF1:1,2016-01-13T01:00:00Z,25.2320,-80.9380,1.0,20.43,2 
ENP,ioos.station.NOAA.NDBC:WWEF1:1,2016-01-13T02:00:00Z,25.2320,-80.9380,1.0,20.36,2 
ENP,ioos.station.NOAA.NDBC:WWEF1:1,2016-01-13T03:00:00Z,25.2320,-80.9380,1.0,20.29,2 
ENP,ioos.station.NOAA.NDBC:WWEF1:1,2016-01-13T04:00:00Z,25.2320,-80.9380,1.0,20.2,2 
ENP,ioos.station.NOAA.NDBC:WWEF1:1,2016-01-13T05:00:00Z,25.2320,-80.9380,1.0,20.1,2 
ENP,ioos.station.NOAA.NDBC:WWEF1:1,2016-01-13T06:00:00Z,25.2320,-80.9380,1.0,19.98,2 
ENP,ioos.station.NOAA.NDBC:WWEF1:1,2016-01-13T07:00:00Z,25.2320,-80.9380,1.0,19.82,2 
ENP,ioos.station.NOAA.NDBC:WWEF1:1,2016-01-13T08:00:00Z,25.2320,-80.9380,1.0,19.68,2 
ENP,ioos.station.NOAA.NDBC:WWEF1:1,2016-01-13T09:00:00Z,25.2320,-80.9380,1.0,19.58,2 
ENP,ioos.station.NOAA.NDBC:WWEF1:1,2016-01-13T10:00:00Z,25.2320,-80.9380,1.0,19.44,2 
ENP,ioos.station.NOAA.NDBC:WWEF1:1,2016-01-13T11:00:00Z,25.2320,-80.9380,1.0,19.33,2 
ENP,ioos.station.NOAA.NDBC:WWEF1:1,2016-01-13T12:00:00Z,25.2320,-80.9380,1.0,19.2,2 
ENP,ioos.station.NOAA.NDBC:WWEF1:1,2016-01-13T13:00:00Z,25.2320,-80.9380,1.0,19.06,2 
ENP,ioos.station.NOAA.NDBC:WWEF1:1,2016-01-13T14:00:00Z,25.2320,-80.9380,1.0,18.96,2 
ENP,ioos.station.NOAA.NDBC:WWEF1:1,2016-01-13T15:00:00Z,25.2320,-80.9380,1.0,18.87,2 
ENP,ioos.station.NOAA.NDBC:WWEF1:1,2016-01-13T17:00:00Z,25.2320,-80.9380,1.0,18.74,2 
ENP,ioos.station.NOAA.NDBC:WWEF1:1,2016-01-13T18:00:00Z,25.2320,-80.9380,1.0,18.69,2 
ENP,ioos.station.NOAA.NDBC:WWEF1:1,2016-01-13T19:00:00Z,25.2320,-80.9380,1.0,18.65,2 
ENP,ioos.station.NOAA.NDBC:WWEF1:1,2016-01-13T20:00:00Z,25.2320,-80.9380,1.0,18.66,2 
ENP,ioos.station.NOAA.NDBC:WWEF1:1,2016-01-13T21:00:00Z,25.2320,-80.9380,1.0,18.66,2 
ENP,ioos.station.NOAA.NDBC:WWEF1:1,2016-01-13T22:00:00Z,25.2320,-80.9380,1.0,18.65,2 
ENP,ioos.station.NOAA.NDBC:WWEF1:1,2016-01-13T23:00:00Z,25.2320,-80.9380,1.0,18.65,2 
ENP,ioos.station.NOAA.NDBC:WWEF1:1,2016-01-14T00:00:00Z,25.2320,-80.9380,1.0,18.66,2 
ENP,ioos.station.NOAA.NDBC:WWEF1:1,2016-01-14T01:00:00Z,25.2320,-80.9380,1.0,18.65,2 
ENP,ioos.station.NOAA.NDBC:WWEF1:1,2016-01-14T02:00:00Z,25.2320,-80.9380,1.0,18.61,2 
ENP,ioos.station.NOAA.NDBC:WWEF1:1,2016-01-14T03:00:00Z,25.2320,-80.9380,1.0,18.55,2 
ENP,ioos.station.NOAA.NDBC:WWEF1:1,2016-01-14T04:00:00Z,25.2320,-80.9380,1.0,18.51,2 
ENP,ioos.station.NOAA.NDBC:WWEF1:1,2016-01-14T05:00:00Z,25.2320,-80.9380,1.0,18.46,2 
ENP,ioos.station.NOAA.NDBC:WWEF1:1,2016-01-14T06:00:00Z,25.2320,-80.9380,1.0,18.41,2 
ENP,ioos.station.NOAA.NDBC:WWEF1:1,2016-01-14T07:00:00Z,25.2320,-80.9380,1.0,18.37,2 
ENP,ioos.station.NOAA.NDBC:WWEF1:1,2016-01-14T08:00:00Z,25.2320,-80.9380,1.0,18.33,2 
ENP,ioos.station.NOAA.NDBC:WWEF1:1,2016-01-14T09:00:00Z,25.2320,-80.9380,1.0,18.27,2 
ENP,ioos.station.NOAA.NDBC:WWEF1:1,2016-01-14T11:00:00Z,25.2320,-80.9380,1.0,18.13,2 
ENP,ioos.station.NOAA.NDBC:WWEF1:1,2016-01-14T12:00:00Z,25.2320,-80.9380,1.0,18.09,2 
ENP,ioos.station.NOAA.NDBC:WWEF1:1,2016-01-14T13:00:00Z,25.2320,-80.9380,1.0,18.04,2 
ENP,ioos.station.NOAA.NDBC:WWEF1:1,2016-01-14T14:00:00Z,25.2320,-80.9380,1.0,18.0,2 
ENP,ioos.station.NOAA.NDBC:WWEF1:1,2016-01-14T15:00:00Z,25.2320,-80.9380,1.0,17.99,2 
ENP,ioos.station.NOAA.NDBC:WWEF1:1,2016-01-14T16:00:00Z,25.2320,-80.9380,1.0,18.0,2 
ENP,ioos.station.NOAA.NDBC:WWEF1:1,2016-01-14T17:00:00Z,25.2320,-80.9380,1.0,18.01,2 
ENP,ioos.station.NOAA.NDBC:WWEF1:1,2016-01-14T18:00:00Z,25.2320,-80.9380,1.0,18.06,2 
ENP,ioos.station.NOAA.NDBC:WWEF1:1,2016-01-14T19:00:00Z,25.2320,-80.9380,1.0,18.18,2 
ENP,ioos.station.NOAA.NDBC:WWEF1:1,2016-01-14T20:00:00Z,25.2320,-80.9380,1.0,18.41,2 
ENP,ioos.station.NOAA.NDBC:WWEF1:1,2016-01-14T21:00:00Z,25.2320,-80.9380,1.0,18.48,2 
ENP,ioos.station.NOAA.NDBC:WWEF1:1,2016-01-14T22:00:00Z,25.2320,-80.9380,1.0,18.48,2 
ENP,ioos.station.NOAA.NDBC:WWEF1:1,2016-01-14T23:00:00Z,25.2320,-80.9380,1.0,18.49,2 
ENP,ioos.station.NOAA.NDBC:WWEF1:1,2016-01-15T00:00:00Z,25.2320,-80.9380,1.0,18.49,2 
ENP,ioos.station.NOAA.NDBC:WWEF1:1,2016-01-15T01:00:00Z,25.2320,-80.9380,1.0,18.48,2 
ENP,ioos.station.NOAA.NDBC:WWEF1:1,2016-01-15T02:00:00Z,25.2320,-80.9380,1.0,18.45,2 
ENP,ioos.station.NOAA.NDBC:WWEF1:1,2016-01-15T03:00:00Z,25.2320,-80.9380,1.0,18.45,2 
ENP,ioos.station.NOAA.NDBC:WWEF1:1,2016-01-15T04:00:00Z,25.2320,-80.9380,1.0,18.46,2 
ENP,ioos.station.NOAA.NDBC:WWEF1:1,2016-01-15T05:00:00Z,25.2320,-80.9380,1.0,18.43,2 
ENP,ioos.station.NOAA.NDBC:WWEF1:1,2016-01-15T06:00:00Z,25.2320,-80.9380,1.0,18.39,2 
ENP,ioos.station.NOAA.NDBC:WWEF1:1,2016-01-15T07:00:00Z,25.2320,-80.9380,1.0,18.38,2 
ENP,ioos.station.NOAA.NDBC:WWEF1:1,2016-01-15T08:00:00Z,25.2320,-80.9380,1.0,18.39,2 
ENP,ioos.station.NOAA.NDBC:WWEF1:1,2016-01-15T09:00:00Z,25.2320,-80.9380,1.0,18.42,2 
ENP,ioos.station.NOAA.NDBC:WWEF1:1,2016-01-15T11:00:00Z,25.2320,-80.9380,1.0,18.47,2 
ENP,ioos.station.NOAA.NDBC:WWEF1:1,2016-01-15T12:00:00Z,25.2320,-80.9380,1.0,18.51,2 
ENP,ioos.station.NOAA.NDBC:WWEF1:1,2016-01-15T13:00:00Z,25.2320,-80.9380,1.0,18.57,2 
ENP,ioos.station.NOAA.NDBC:WWEF1:1,2016-01-15T15:00:00Z,25.2320,-80.9380,1.0,18.9,2 
ENP,ioos.station.NOAA.NDBC:WWEF1:1,2016-01-15T16:00:00Z,25.2320,-80.9380,1.0,19.25,2 
ENP,ioos.station.NOAA.NDBC:WWEF1:1,2016-01-15T17:00:00Z,25.2320,-80.9380,1.0,19.4,2 
ENP,ioos.station.NOAA.NDBC:WWEF1:1,2016-01-15T18:00:00Z,25.2320,-80.9380,1.0,19.3,2 
ENP,ioos.station.NOAA.NDBC:WWEF1:1,2016-01-15T19:00:00Z,25.2320,-80.9380,1.0,19.36,2 
ENP,ioos.station.NOAA.NDBC:WWEF1:1,2016-01-16T00:00:00Z,25.2320,-80.9380,1.0,19.61,2 
ENP,ioos.station.NOAA.NDBC:WWEF1:1,2016-01-16T01:00:00Z,25.2320,-80.9380,1.0,19.61,2 
ENP,ioos.station.NOAA.NDBC:WWEF1:1,2016-01-16T04:00:00Z,25.2320,-80.9380,1.0,19.49,2 
ENP,ioos.station.NOAA.NDBC:WWEF1:1,2016-01-16T06:00:00Z,25.2320,-80.9380,1.0,19.42,2 
ENP,ioos.station.NOAA.NDBC:WWEF1:1,2016-01-16T07:00:00Z,25.2320,-80.9380,1.0,19.4,2 
ENP,ioos.station.NOAA.NDBC:WWEF1:1,2016-01-16T08:00:00Z,25.2320,-80.9380,1.0,19.4,2 
ENP,ioos.station.NOAA.NDBC:WWEF1:1,2016-01-16T09:00:00Z,25.2320,-80.9380,1.0,19.4,2 
ENP,ioos.station.NOAA.NDBC:WWEF1:1,2016-01-16T11:00:00Z,25.2320,-80.9380,1.0,19.35,2 
ENP,ioos.station.NOAA.NDBC:WWEF1:1,2016-01-16T14:00:00Z,25.2320,-80.9380,1.0,19.54,2 
ENP,ioos.station.NOAA.NDBC:WWEF1:1,2016-01-16T16:00:00Z,25.2320,-80.9380,1.0,19.54,2 
ENP,ioos.station.NOAA.NDBC:WWEF1:1,2016-01-16T17:00:00Z,25.2320,-80.9380,1.0,19.56,2 
ENP,ioos.station.NOAA.NDBC:WWEF1:1,2016-01-16T22:00:00Z,25.2320,-80.9380,1.0,22.0,2 
ENP,ioos.station.NOAA.NDBC:WWEF1:1,2016-01-16T23:00:00Z,25.2320,-80.9380,1.0,21.52,2 